GW3607 Weather Reports


Display with metric or nautical units.
time (UTC)temp
F
wind
direction
speed
MPH
gust
MPH
rain 1hr
in
rain 24hr
in
rain mn
in
humidity
%
barometer
mb
20260503180536 54 85 3.0 8.0 0.00 0.00 0.00 76 1026.6
20260503180050 54 90 3.0 8.0 0.00 0.00 0.00 76 1026.6
20260503175536 54 72 2.0 6.0 0.00 0.00 0.00 76 1026.6
20260503175035 54 121 0.0 6.0 0.00 0.00 0.00 76 1026.7
20260503174555 54 85 1.0 4.0 0.00 0.00 0.00 75 1026.8
20260503174035 54 78 0.0 5.0 0.00 0.00 0.00 75 1026.7
20260503173535 54 0 0.0 5.0 0.00 0.00 0.00 74 1026.7
20260503173055 54 96 0.0 4.0 0.00 0.00 0.00 75 1026.6
20260503172535 55 0 0.0 6.0 0.00 0.00 0.00 74 1026.7
20260503172034 55 122 0.0 6.0 0.00 0.00 0.00 74 1026.6
20260503171540 55 137 1.0 6.0 0.00 0.00 0.00 75 1026.5
20260503171036 55 152 2.0 6.0 0.00 0.00 0.00 74 1026.7
20260503170535 55 175 1.0 4.0 0.00 0.00 0.00 74 1026.7
20260503150535 56 86 4.0 13.0 0.00 0.00 0.00 73 1026.0
20260503131034 56 140 0.0 2.0 0.00 0.00 0.00 72 1026.2
20260503130535 56 0 0.0 3.0 0.00 0.00 0.00 72 1026.2
20260503110535 56 0 0.0 1.0 0.00 0.00 0.00 77 1025.7
20260503081546 66 164 1.0 7.0 0.00 0.00 0.00 59 1024.5
20260503081035 66 0 1.0 7.0 0.00 0.00 0.00 59 1024.5
20260503080536 66 0 1.0 9.0 0.00 0.00 0.00 59 1024.3
20260503072537 67 0 1.0 7.0 0.00 0.00 0.00 58 1024.3
20260503072035 66 70 3.0 7.0 0.00 0.00 0.00 59 1024.4
20260503071545 67 241 0.0 9.0 0.00 0.00 0.00 57 1024.5
20260503071038 67 61 1.0 9.0 0.00 0.00 0.00 58 1024.5
20260503070534 67 47 2.0 7.0 0.00 0.00 0.00 58 1024.4
20260503055042 64 0 5.0 14.0 0.00 0.00 0.00 64 1024.8
20260503054542 65 72 2.0 11.0 0.00 0.00 0.00 63 1024.7
20260503054035 65 37 2.0 11.0 0.00 0.00 0.00 63 1024.9
20260503053535 65 60 3.0 11.0 0.00 0.00 0.00 62 1024.8
20260503053042 65 151 3.0 9.0 0.00 0.00 0.00 63 1024.8
20260503052536 66 110 2.0 9.0 0.00 0.00 0.00 64 1024.8
20260503052036 66 86 3.0 11.0 0.00 0.00 0.00 63 1024.9
20260503051540 66 81 1.0 11.0 0.00 0.00 0.00 64 1024.9
20260503051037 64 97 4.0 11.0 0.00 0.00 0.00 66 1025.1
20260503050535 64 59 2.0 10.0 0.00 0.00 0.00 66 1025.0
20260503050040 64 52 1.0 8.0 0.00 0.00 0.00 66 1025.3
20260503045537 65 170 2.0 8.0 0.00 0.00 0.00 66 1025.3
20260503045035 64 0 2.0 8.0 0.00 0.00 0.00 67 1025.4
20260503044535 63 113 1.0 9.0 0.00 0.00 0.00 68 1025.5
20260503044034 64 93 3.0 11.0 0.00 0.00 0.00 69 1025.6
20260503043534 63 56 3.0 11.0 0.00 0.00 0.00 69 1025.7
20260503043042 63 185 2.0 10.0 0.00 0.00 0.00 70 1025.8
20260503042536 62 43 2.0 10.0 0.00 0.00 0.00 70 1026.0
20260503042035 62 86 4.0 13.0 0.00 0.00 0.00 70 1026.0
20260503041539 62 95 4.0 14.0 0.00 0.00 0.00 71 1026.1
20260503041035 61 74 5.0 14.0 0.00 0.00 0.00 71 1026.0
20260503040534 61 123 4.0 14.0 0.00 0.00 0.00 72 1026.1
20260503040040 60 0 2.0 14.0 0.00 0.00 0.00 75 1026.2
20260503035534 60 113 4.0 14.0 0.00 0.00 0.00 73 1026.1
20260503035034 60 37 4.0 13.0 0.00 0.00 0.00 74 1026.1
20260503034538 60 56 3.0 13.0 0.00 0.00 0.00 74 1026.2
20260503034034 60 69 4.0 14.0 0.00 0.00 0.00 74 1026.2
20260503033534 59 85 5.0 14.0 0.00 0.00 0.00 75 1026.2
20260503033046 59 140 4.0 12.0 0.00 0.00 0.00 76 1026.3
20260503032535 58 112 3.0 15.0 0.00 0.00 0.00 77 1026.5
20260503032037 57 120 6.0 15.0 0.00 0.00 0.00 79 1026.5
20260503031542 57 93 5.0 13.0 0.00 0.00 0.00 79 1026.7
20260503031035 56 73 6.0 17.0 0.00 0.00 0.00 80 1026.7
20260503030535 55 86 6.0 17.0 0.00 0.00 0.00 80 1026.7
20260503030059 55 70 8.0 17.0 0.00 0.00 0.00 80 1026.7
20260503025534 55 70 6.0 15.0 0.00 0.00 0.00 80 1026.6
20260503025034 54 70 7.0 15.0 0.00 0.00 0.00 82 1026.8
20260503024541 54 91 7.0 14.0 0.00 0.00 0.00 81 1026.8
20260503024034 54 72 5.0 14.0 0.00 0.00 0.00 82 1026.9
20260503023534 53 93 7.0 17.0 0.00 0.00 0.00 82 1026.9
20260503023039 53 62 6.0 17.0 0.00 0.00 0.00 81 1026.8
20260503022535 54 79 4.0 14.0 0.00 0.00 0.00 82 1027.0
20260503022035 54 76 6.0 14.0 0.00 0.00 0.00 81 1026.8
20260503021543 53 95 6.0 14.0 0.00 0.00 0.00 81 1026.8
20260503021035 53 121 6.0 16.0 0.00 0.00 0.00 82 1026.7
20260503020535 52 73 8.0 16.0 0.00 0.00 0.00 81 1026.9
20260503020043 53 81 7.0 14.0 0.00 0.00 0.00 81 1026.9
20260503015535 53 56 6.0 14.0 0.00 0.00 0.00 80 1026.8
20260503015034 54 64 7.0 15.0 0.00 0.00 0.00 80 1026.8
20260503014556 54 164 5.0 15.0 0.00 0.00 0.00 80 1026.7
20260503014034 53 91 8.0 15.0 0.00 0.00 0.00 80 1026.7
20260503013535 53 55 6.0 18.0 0.00 0.00 0.00 81 1026.6
20260503013039 53 99 7.0 18.0 0.00 0.00 0.00 80 1026.8
20260503012535 54 61 5.0 14.0 0.00 0.00 0.00 80 1026.8
20260503012034 54 81 6.0 12.0 0.00 0.00 0.00 81 1026.8
20260503011542 54 93 5.0 13.0 0.00 0.00 0.00 80 1026.8
20260503011036 54 101 5.0 13.0 0.00 0.00 0.00 79 1026.7
20260503010536 54 141 5.0 12.0 0.00 0.00 0.00 79 1026.7
20260503010037 55 85 4.0 9.0 0.00 0.00 0.00 79 1026.7
20260503005538 55 73 4.0 9.0 0.00 0.00 0.00 80 1026.6
20260503005035 55 97 3.0 12.0 0.00 0.00 0.00 80 1026.6
20260503004539 56 71 3.0 12.0 0.00 0.00 0.00 80 1026.6
20260503004034 55 127 4.0 12.0 0.00 0.00 0.00 80 1026.6
20260503003534 55 90 3.0 9.0 0.00 0.00 0.00 81 1026.5
20260503003059 55 153 2.0 9.0 0.00 0.00 0.00 82 1026.6
20260503002536 54 77 3.0 9.0 0.00 0.00 0.00 82 1026.7
20260503002036 54 123 3.0 10.0 0.00 0.00 0.00 83 1026.6
20260503001556 53 106 4.0 10.0 0.00 0.00 0.00 84 1026.5
20260503001039 53 101 3.0 9.0 0.00 0.00 0.00 84 1026.5
20260503000534 53 97 2.0 7.0 0.00 0.00 0.00 84 1026.4
20260503000056 52 116 2.0 7.0 0.00 0.00 0.00 84 1026.4
20260502235535 52 60 1.0 7.0 0.00 0.00 0.00 84 1026.4
20260502235035 52 124 2.0 6.0 0.00 0.00 0.00 84 1026.4
20260502234542 52 79 1.0 6.0 0.00 0.00 0.00 84 1026.2
20260502234035 52 79 1.0 4.0 0.00 0.00 0.00 84 1026.1
20260502233534 52 120 2.0 4.0 0.00 0.00 0.00 83 1026.1
20260502233042 52 130 1.0 7.0 0.00 0.00 0.00 83 1026.0
20260502232534 52 104 2.0 8.0 0.00 0.00 0.00 83 1026.1
20260502232034 51 111 2.0 8.0 0.00 0.00 0.00 83 1025.9
20260502231539 51 110 2.0 5.0 0.00 0.00 0.00 83 1025.9
20260502231034 51 115 2.0 5.0 0.00 0.00 0.00 83 1025.8
20260502230535 51 131 2.0 4.0 0.00 0.00 0.00 83 1025.8
20260502230041 51 133 1.0 4.0 0.00 0.00 0.00 83 1025.7
20260502225534 51 106 1.0 3.0 0.00 0.00 0.00 83 1025.6
20260502225034 51 116 1.0 4.0 0.00 0.00 0.00 83 1025.6
20260502224538 51 125 1.0 4.0 0.00 0.00 0.00 83 1025.5
20260502224035 51 120 1.0 4.0 0.00 0.00 0.00 84 1025.5
20260502223538 51 0 0.0 3.0 0.00 0.00 0.00 84 1025.5
20260502223042 50 0 0.0 4.0 0.00 0.00 0.00 84 1025.5
20260502222534 50 0 1.0 4.0 0.00 0.00 0.00 84 1025.5
20260502222037 50 0 0.0 3.0 0.00 0.00 0.00 83 1025.4
20260502221539 50 0 0.0 3.0 0.00 0.00 0.00 83 1025.2
20260502221037 51 0 0.0 2.0 0.00 0.00 0.00 83 1025.4
20260502220535 51 120 0.0 2.0 0.00 0.00 0.00 83 1025.4
20260502220041 51 120 0.0 3.0 0.00 0.00 0.00 83 1025.2
20260502215535 51 0 1.0 3.0 0.00 0.00 0.00 83 1025.2
20260502215038 51 139 0.0 2.0 0.00 0.00 0.00 83 1025.2
20260502214553 51 0 0.0 0.0 0.00 0.00 0.00 83 1025.3
20260502214039 51 0 0.0 1.0 0.00 0.00 0.00 83 1025.3
20260502213534 51 0 0.0 3.0 0.00 0.00 0.00 83 1025.2
20260502213045 51 0 1.0 3.0 0.00 0.00 0.00 83 1025.2
20260502212535 51 129 1.0 3.0 0.00 0.00 0.00 83 1025.1
20260502212035 51 126 1.0 3.0 0.00 0.00 0.00 83 1025.1
20260502211545 51 128 1.0 3.0 0.00 0.00 0.00 83 1025.1
20260502211034 51 133 1.0 3.0 0.00 0.00 0.00 83 1024.9
20260502210534 51 129 1.0 3.0 0.00 0.00 0.00 83 1025.0
20260502210043 51 126 2.0 4.0 0.00 0.00 0.00 83 1024.9
20260502205535 51 125 2.0 4.0 0.00 0.00 0.00 83 1024.9
20260502205035 51 101 1.0 4.0 0.00 0.00 0.00 82 1024.9
20260502204539 51 117 1.0 4.0 0.00 0.00 0.00 82 1024.9
20260502204035 51 131 1.0 3.0 0.00 0.00 0.00 82 1024.9
20260502203535 51 125 1.0 3.0 0.00 0.00 0.00 82 1024.8
20260502203059 51 124 1.0 3.0 0.00 0.00 0.00 82 1024.9
20260502202540 51 122 1.0 3.0 0.00 0.00 0.00 83 1024.9
20260502202036 51 124 0.0 0.0 0.00 0.00 0.00 83 1024.9
20260502201545 51 0 0.0 3.0 0.00 0.00 0.00 83 1024.8
20260502201040 51 0 0.0 3.0 0.00 0.00 0.00 83 1024.8
20260502200538 51 120 1.0 4.0 0.00 0.00 0.00 83 1024.9
20260502200044 51 101 1.0 4.0 0.00 0.00 0.00 83 1025.0
20260502195535 50 141 0.0 3.0 0.00 0.00 0.00 83 1024.9
20260502195035 50 0 0.0 0.0 0.00 0.00 0.00 83 1024.9
20260502194542 50 0 0.0 3.0 0.00 0.00 0.00 82 1024.9
20260502194036 51 0 0.0 3.0 0.00 0.00 0.00 82 1024.9
20260502193536 51 116 1.0 2.0 0.00 0.00 0.00 82 1024.9
20260502193042 51 0 0.0 0.0 0.00 0.00 0.00 82 1024.9
20260502192536 51 0 0.0 0.0 0.00 0.00 0.00 83 1024.9
20260502192036 51 0 0.0 0.0 0.00 0.00 0.00 82 1025.0
20260502191540 51 0 0.0 0.0 0.00 0.00 0.00 83 1024.9
20260502191036 51 0 0.0 0.0 0.00 0.00 0.00 82 1024.9
20260502190536 51 0 0.0 2.0 0.00 0.00 0.00 82 1024.9
20260502190040 51 0 0.0 3.0 0.00 0.00 0.00 83 1024.9
20260502185536 51 0 1.0 3.0 0.00 0.00 0.00 83 1024.9
20260502185036 51 122 1.0 3.0 0.00 0.00 0.00 83 1025.0
20260502184545 51 123 1.0 5.0 0.00 0.00 0.00 83 1024.8
20260502184037 51 125 1.0 5.0 0.00 0.00 0.00 83 1024.8
20260502183536 51 129 1.0 3.0 0.00 0.00 0.00 83 1024.8
20260502183044 51 127 1.0 3.0 0.00 0.00 0.00 82 1024.9
20260502182535 51 127 0.0 3.0 0.00 0.00 0.00 82 1024.9
20260502182037 51 126 1.0 3.0 0.00 0.00 0.00 82 1025.0
20260502181557 51 126 1.0 3.0 0.00 0.00 0.00 82 1025.0
20260502181038 51 126 1.0 3.0 0.00 0.00 0.00 82 1025.0